Location: Warwick
(41.7000°N, 71.4170°W)
Time: 04:42:52
(UTC-04:00)

OTV 5 (USA 277) - Visible Passes

Search period start: 19 June 2018 00:00
Search period end: 29 June 2018 00:00
Orbit: 313 x 320 km, 54.5° (Epoch: 18 June)

Date Brightness Start Highest point End Pass type
(mag) Time Alt. Az. Time Alt. Az. Time Alt. Az.
19 Jun ? 02:11:49 10° NNW 02:13:35 16° NNE 02:15:21 10° ENE visible
19 Jun ? 03:45:27 10° WNW 03:48:07 54° SW 03:50:47 10° SE visible
19 Jun ? 21:40:33 10° WNW 21:42:26 17° NNW 21:44:18 10° NNE visible
20 Jun ? 02:25:48 10° NNW 02:28:15 30° NNE 02:30:42 10° E visible
20 Jun ? 04:00:25 10° W 04:01:31 16° WSW 04:01:31 16° WSW visible
20 Jun ? 21:56:48 10° NNW 21:57:12 10° NNW 21:57:35 10° N visible
21 Jun ? 01:06:54 10° N 01:08:04 12° NNE 01:09:15 10° NE visible
21 Jun ? 02:40:04 10° NW 02:40:32 14° NW 02:40:32 14° NW visible
22 Jun ? 01:20:38 10° NNW 01:22:00 18° N 01:22:00 18° N visible
23 Jun ? 01:34:45 10° NW 01:34:49 10° NW 01:34:49 10° NW visible
24 Jun ? 00:15:34 10° NNW 00:17:06 15° NNE 00:17:06 15° NNE visible
25 Jun ? 00:29:32 10° NNW 00:30:21 16° NNW 00:30:21 16° NNW visible
25 Jun ? 23:10:39 10° N 23:11:47 12° NNE 23:12:51 10° NE visible
26 Jun ? 23:24:22 10° NNW 23:26:17 20° NNE 23:26:17 20° NNE visible
27 Jun ? 23:38:29 10° NW 23:39:46 23° NNW 23:39:46 23° NNW visible
28 Jun ? 22:19:19 10° NNW 22:21:02 15° NNE 22:22:27 11° ENE visible
28 Jun ? 23:52:54 10° WNW 23:53:18 13° WNW 23:53:18 13° WNW visible
